Overview Statistics Trail Chart Weather Telemetry Raw packets
 

This is the latest recevied weather packets stored in our database for station/object K7KAR-2. If no packets are shown the sender has not sent any weather packets the latest 10 day(s).

<< 101 102 103 104 105 106 107 >>
Time Temp. Humidity Pressure Rain* Wind** Luminosity Snow
1787853986 31.67° C 21% 1017 hPa 0 mm - 839 W/m² -
1787853680 31.67° C 21% 1016.8 hPa 0 mm - 788 W/m² -
1787853380 32.22° C 22% 1016.9 hPa 0 mm - 840 W/m² -
1787853074 32.22° C 22% 1016.7 hPa 0 mm - 862 W/m² -
1787852769 31.67° C 22% 1017.1 hPa 0 mm - 850 W/m² -
1787852468 31.67° C 23% 1017.2 hPa 0 mm - 844 W/m² -
1787852168 31.67° C 22% 1017.2 hPa 0 mm - 846 W/m² -
1787851863 31.11° C 24% 1017.2 hPa 0 mm - 852 W/m² -
1787851561 31.67° C 23% 1017.5 hPa 0 mm - 837 W/m² -
1787851256 31.11° C 25% 1017.1 hPa 0 mm - 864 W/m² -
1787850951 31.11° C 25% 1017.5 hPa 0 mm - 739 W/m² -
1787850648 30.56° C 26% 1017.2 hPa 0 mm - 746 W/m² -
1787850343 30.56° C 26% 1017.1 hPa 0 mm - 817 W/m² -
1787850033 30° C 25% 1017.6 hPa 0 mm - 682 W/m² -
1787849732 29.44° C 25% 1017.7 hPa 0 mm - 729 W/m² -
1787849428 29.44° C 26% 1017.8 hPa 0 mm - 754 W/m² -
1787849126 28.89° C 27% 1017.7 hPa 0 mm - 688 W/m² -
1787848821 28.89° C 28% 1017.4 hPa 0 mm - 707 W/m² -
1787848520 28.33° C 29% 1017.7 hPa 0 mm - 708 W/m² -
1787848215 27.78° C 30% 1017.8 hPa 0 mm - 699 W/m² -
1787847914 27.78° C 30% 1017.9 hPa 0 mm - 686 W/m² -
1787847609 28.33° C 29% 1017.8 hPa 0 mm - 660 W/m² -
1787847305 27.78° C 32% 1018 hPa 0 mm - 613 W/m² -
1787847001 27.22° C 31% 1017.9 hPa 0 mm - 632 W/m² -
1787846701 26.67° C 31% 1017.8 hPa 0 mm - 610 W/m² -

* Rain latest hour (hover to see other rain measurements)
** Current wind speed in m/s (hover to see current wind gust speed)